Location: Newark
(48.7667°N, 7.9833°E)
Time: 06:12:00
(UTC+00:00)

QB50P2 - Visible Passes

Search period start: 20 September 2019 00:00
Search period end: 30 September 2019 00:00
Orbit: 593 x 612 km, 97.9° (Epoch: 18 September)

Date Brightness Start Highest point End Pass type
(mag) Time Alt. Az. Time Alt. Az. Time Alt. Az.
20 Sep ? 00:41:40 10° N 00:41:59 12° N 00:41:59 12° N visible
21 Sep ? 00:53:41 10° N 00:53:53 11° N 00:53:53 11° N visible
22 Sep ? 01:05:45 10° N 01:05:47 10° N 01:05:47 10° N visible
